TimeEST,TemperatureF,Dew PointF,Humidity,Sea Level PressureIn,VisibilityMPH,Wind Direction,Wind SpeedMPH,Gust SpeedMPH,PrecipitationIn,Events,Conditions,WindDirDegrees,DateUTC
12:55 AM,61.9,60.4,95,30.15,10.0,ENE,10.4,-,N/A,,Scattered Clouds,60,2012-11-18 05:55:00
1:02 AM,62.6,60.8,94,30.15,10.0,ENE,10.4,-,N/A,,Mostly Cloudy,60,2012-11-18 06:02:00
1:55 AM,62.4,61.0,95,30.14,10.0,ENE,11.5,-,N/A,,Overcast,60,2012-11-18 06:55:00
2:55 AM,62.2,60.8,95,30.13,10.0,ENE,15.0,-,N/A,,Overcast,60,2012-11-18 07:55:00
3:55 AM,62.1,60.3,94,30.14,10.0,ENE,9.2,-,N/A,,Overcast,60,2012-11-18 08:55:00
4:23 AM,62.6,60.8,94,30.14,10.0,ENE,11.5,-,N/A,,Overcast,70,2012-11-18 09:23:00
4:55 AM,61.7,60.3,95,30.14,10.0,ENE,10.4,-,N/A,,Overcast,60,2012-11-18 09:55:00
5:00 AM,62.6,60.8,94,30.14,10.0,ENE,13.8,-,N/A,,Overcast,70,2012-11-18 10:00:00
5:55 AM,61.3,60.3,96,30.15,10.0,ENE,12.7,-,N/A,,Overcast,60,2012-11-18 10:55:00
6:55 AM,61.2,60.1,96,30.16,10.0,ENE,11.5,-,N/A,,Overcast,60,2012-11-18 11:55:00
7:55 AM,61.2,60.1,96,30.17,10.0,ENE,16.1,-,N/A,,Overcast,70,2012-11-18 12:55:00
8:55 AM,62.1,60.6,95,30.18,10.0,ENE,15.0,-,N/A,,Overcast,70,2012-11-18 13:55:00
9:08 AM,62.6,60.8,94,30.19,10.0,ENE,15.0,-,N/A,,Overcast,70,2012-11-18 14:08:00
9:32 AM,62.6,60.8,94,30.19,10.0,ENE,15.0,-,N/A,,Overcast,60,2012-11-18 14:32:00
9:55 AM,63.5,60.3,89,30.20,10.0,ENE,16.1,-,N/A,,Overcast,70,2012-11-18 14:55:00
10:55 AM,65.7,60.3,83,30.21,10.0,NE,13.8,-,N/A,,Overcast,50,2012-11-18 15:55:00
11:28 AM,68.0,60.8,78,30.20,10.0,NE,13.8,-,N/A,,Overcast,50,2012-11-18 16:28:00
11:55 AM,68.9,61.0,76,30.18,10.0,East,13.8,18.4,N/A,,Mostly Cloudy,90,2012-11-18 16:55:00
12:03 PM,69.8,60.8,73,30.18,10.0,ENE,9.2,-,N/A,,Scattered Clouds,70,2012-11-18 17:03:00
12:55 PM,71.4,61.5,71,30.16,10.0,NE,9.2,-,N/A,,Clear,40,2012-11-18 17:55:00
1:55 PM,74.7,61.2,63,30.14,10.0,NE,9.2,-,N/A,,Clear,50,2012-11-18 18:55:00
2:55 PM,74.5,60.3,61,30.13,10.0,ENE,9.2,-,N/A,,Clear,60,2012-11-18 19:55:00
3:55 PM,73.6,59.7,62,30.13,10.0,ENE,10.4,-,N/A,,Clear,70,2012-11-18 20:55:00
4:55 PM,72.5,59.9,64,30.14,10.0,ENE,9.2,-,N/A,,Clear,60,2012-11-18 21:55:00
5:55 PM,67.1,59.2,76,30.15,10.0,NE,6.9,-,N/A,,Clear,50,2012-11-18 22:55:00
6:55 PM,64.2,58.8,83,30.18,10.0,NE,6.9,-,N/A,,Clear,50,2012-11-18 23:55:00
7:55 PM,62.8,57.9,84,30.19,10.0,NE,6.9,-,N/A,,Clear,50,2012-11-19 00:55:00
8:55 PM,61.3,57.9,89,30.20,10.0,ENE,8.1,-,N/A,,Clear,60,2012-11-19 01:55:00
9:55 PM,58.3,55.4,90,30.20,10.0,ENE,5.8,-,N/A,,Clear,60,2012-11-19 02:55:00
10:55 PM,57.2,54.9,92,30.19,10.0,ENE,8.1,-,N/A,,Clear,60,2012-11-19 03:55:00
11:55 PM,54.9,53.4,95,30.18,10.0,ENE,5.8,-,N/A,,Clear,60,2012-11-19 04:55:00